DIRECTV 7S (28238 NORAD) Tracking and Keplerian Element Data

This shows tracking and keplerian element data for the satellite.

Feedback or suggestion? Click here.




ElementValue
Catalog28238
NameDIRECTV 7S
Epoch Orbit6156
Epoch Day49.73534703
Epoch Year2021
RAAN91.3187
Inclination0.1222
Eccentricity0.0002789
Argument of Perigee25.7159
Mean Anonmoly142.3557
Mean Motion0.98917602
Decay Rate-1.8E-07
L11 28238U 04016A 21049.73534703 -.00000018 00000-0 00000-0 0 9992
L22 28238 0.1222 91.3187 0002789 25.7159 142.3557 0.98917602 61563



Live tracking and technical data element details for DIRECTV 7S (NORAD 28238). DIRECTV 7S can be tracked NOW for your location showing map with azimuth and elevation plus other details from your city location.







IsCatalogInMostPopularTable: catalog: 28238, numindb: 577
Update: records affected: 1



GetName: 28238 DIRECTV 7S

Hit Count: updated at: Sat, 17 May 2025 10:04:39 GMT